Torna al catalogo

SL-8 DEB

AttivoLEO
NORAD 15033·DEBRIS·🇷🇺 Russia

Lanciato Jun 8, 1984 da Plesetsk Cosmodrome

Loading…

Prossimi Passaggi (prossime 24 ore)

TLE

AggiornatoSource: Space-Track

Epoca: Sep 14, 2026, 10:13 UTC

1 15033U 84056C   26257.42588116  .00000781  00000-0  20620-3 0  9991
2 15033  74.0653 261.3395 0010317  94.5580 336.2376 14.50545348215312

Traccia SL-8 DEB in tempo reale con AllMySat

Download on the App Store